Tracking 23757 objects as of 24-Oct-2021
HD Live streaming from Space Station
objects crossing your sky now

FREGAT DEB

Track FREGAT DEB now!
10-day predictions


NORAD ID: 45816
Int'l Code: 2011-037BA
Perigee: 453.3 km
Apogee: 3,669.4 km
Inclination: 51.5 °
Period: 128.4 minutes
Semi major axis: 8432 km
RCS: Unknown
Launch date: July 18, 2011
Source: Commonwealth of Independent States (former USSR) (CIS)
Launch site: TYURATAM MISSILE AND SPACE COMPLEX (TTMTR)

Note: This is SATELLITE DEBRIS
aabbcc
Your satellite tracking list
Your tracking list is empty




NASA's NSSDC Master Catalog

Two Line Element Set (TLE):
1 45816U 11037BA  21297.38088122  .00001723  00000-0  47088-3 0  9992
2 45816  51.4857 193.0589 1906974 278.6350  60.4174 11.21196372 56969
Source of the keplerian elements: AFSPC